Location: Lincolnton
(35.4660°N, 81.2500°W)
Time: 01:25:05
(UTC-04:00)

Hubble Space Telescope - Visible Passes

Search period start: 29 June 2016 00:00
Search period end: 09 July 2016 00:00
Orbit: 539 x 543 km, 28.5° (Epoch: 27 June)

Date Brightness Start Highest point End Pass type
(mag) Time Alt. Az. Time Alt. Az. Time Alt. Az.
29 Jun 2.6 21:33:40 10° S 21:35:44 14° SSE 21:36:49 12° SE visible
30 Jun 2.5 21:23:20 10° SSW 21:25:56 16° SSE 21:28:18 11° SE visible
30 Jun 3.1 23:03:04 10° SW 23:03:43 13° SW 23:03:43 13° SW visible
01 Jul 2.3 21:13:11 10° SSW 21:16:08 19° SSE 21:19:06 10° ESE visible
01 Jul 2.5 22:53:15 10° WSW 22:54:58 20° SW 22:54:58 20° SW visible
02 Jul 2.1 22:43:29 10° WSW 22:46:01 26° SSW 22:46:01 26° SSW visible
03 Jul 1.8 22:33:44 10° WSW 22:36:56 30° SSW 22:36:56 30° SSW visible
04 Jul 1.7 22:24:01 10° WSW 22:27:39 30° S 22:27:45 30° S visible
05 Jul 1.8 22:14:18 10° WSW 22:17:53 28° S 22:18:29 27° S visible
06 Jul 2.0 22:04:39 10° WSW 22:08:07 26° S 22:09:11 23° SSE visible
07 Jul 2.2 21:55:01 10° WSW 21:58:20 23° SSW 21:59:51 19° SSE visible
08 Jul 2.4 21:45:26 10° WSW 21:48:34 21° SSW 21:50:31 15° SSE visible
